Location: ????????
(55.6773°N, 38.2421°E)
Time: 06:32:16
(UTC+00:00)

Cosmos 1709 Rocket - Pass Details

Date: 23 May 2024
Orbit: 948 x 1001 km, 82.9° (Epoch: 23 June)

Event Time Altitude Azimuth Distance (km) Brightness Sun altitude
Exits shadow 00:05:02 - 203° (SSW) 3,057 6.0 -6.4°
Reaches altitude 10° 00:05:52 10° 204° (SSW) 2,748 5.7 -6.3°
Maximum altitude 00:12:09 64° 286° (WNW) 1,099 4.2 -5.8°
Drops below altitude 10° 00:18:31 10° 8° (N) 2,786 7.4 -5.2°
Sets 00:21:06 0° 12° (NNE) 3,741 8.3 -5.0°
